sat.trackr.live / text

‹ back to catalog

GSAT-19

NORAD 42747 · 2017-031A

PAYLOAD ACTIVE UNKNOWN

§ Identity

Operator
Country
IND
Launch date
2017-06-05
Launch site
SRILR
Launch vehicle
Mass (kg)
RCS (m²)

Purposes: comms

External: N2YO · Heavens-Above · Gunter

§ Orbital elements

Epoch: 2026-09-13T02:06:27.355968Z

Period
1,436.08 min
Inclination
0.0212°
Eccentricity
0.0003651
Mean motion
1.00272826 rev/d
Perigee alt
35,770.9 km
Apogee alt
35,801.7 km
Semi-major
42,164.4 km
B*
0.0000e+0
RAAN
114.2265°
Arg perigee
359.2134°
Mean anomaly
318.1228°
Rev number
3,402

§ Raw data

GSAT-191 42747U 17031A   26256.08781662  .00000113  00000+0  00000+0 0  99982 42747   0.0212 114.2265 0003651 359.2134 318.1228  1.00272826 34026

JSON: /api/v1/satellites/42747 · /tle

For live sub-satellite position, see the globe view (requires WebGL).

§ Visibility from observer

Set your observer location to see the next 7 days of passes ≥ 10°. The values pass through the URL so the page stays shareable.

No JS? Fill the form by hand. The geolocation button needs JavaScript.